EW1390 Weather Reports


Display with metric or nautical units.
time (UTC)temp
F
wind
direction
speed
MPH
gust
MPH
rain 1hr
in
rain 24hr
in
rain mn
in
humidity
%
barometer
mb
20260510023036 75 338 0.0 0.0 0.00 0.00 0.00 61 1004.5
20260510021536 77 338 0.0 1.0 0.00 0.00 0.00 56 1004.4
20260510020035 78 240 0.0 2.0 0.00 0.00 0.00 52 1004.4
20260510014635 79 240 0.0 4.0 0.00 0.00 0.00 49 1004.3
20260510013034 80 246 0.0 5.0 0.00 0.00 0.00 45 1004.3
20260510011537 81 246 0.0 5.0 0.00 0.00 0.00 42 1004.3
20260510010043 82 244 1.0 5.0 0.00 0.00 0.00 42 1004.3
20260510004531 83 248 0.0 2.0 0.00 0.00 0.00 44 1004.4
20260510003032 83 227 0.0 4.0 0.00 0.00 0.00 42 1004.3
20260510001528 83 248 0.0 5.0 0.00 0.00 0.00 46 1004.3
20260510000027 82 234 0.0 5.0 0.00 0.00 0.00 46 1004.3
20260509234526 83 308 1.0 4.0 0.00 0.00 0.00 47 1004.4
20260509233025 83 226 2.0 7.0 0.00 0.00 0.00 45 1004.5
20260509231530 83 248 1.0 4.0 0.00 0.00 0.00 46 1004.5
20260509230024 83 9 2.0 7.0 0.00 0.00 0.00 48 1004.5
20260509224520 83 219 0.0 7.0 0.00 0.00 0.00 49 1004.6
20260509223021 83 99 0.0 4.0 0.00 0.00 0.00 48 1004.9
20260509221528 83 164 0.0 5.0 0.00 0.00 0.00 49 1005.0
20260509220015 82 17 0.0 5.0 0.00 0.00 0.00 51 1005.1
20260509214612 83 320 2.0 5.0 0.00 0.00 0.00 49 1005.3
20260509213010 83 286 0.0 5.0 0.00 0.00 0.00 47 1005.5
20260509211508 82 257 0.0 9.0 0.00 0.00 0.00 49 1005.6
20260509210006 82 213 0.0 5.0 0.00 0.00 0.00 41 1005.7
20260509204504 81 317 0.0 3.0 0.00 0.00 0.00 45 1005.7
20260509203101 82 133 1.0 6.0 0.00 0.00 0.00 46 1005.8
20260509201558 81 228 1.0 4.0 0.00 0.00 0.00 50 1005.9
20260509200059 80 236 0.0 3.0 0.00 0.00 0.00 50 1006.0
20260509194551 79 220 0.0 4.0 0.00 0.00 0.00 50 1006.2
20260509193100 80 235 0.0 4.0 0.00 0.00 0.00 53 1006.5
20260509191608 79 266 1.0 3.0 0.00 0.00 0.00 49 1006.6
20260509190051 79 267 0.0 8.0 0.00 0.00 0.00 50 1006.6
20260509184544 79 309 0.0 4.0 0.00 0.00 0.00 51 1006.8
20260509183042 78 241 1.0 7.0 0.00 0.00 0.00 51 1006.8
20260509181539 77 223 0.0 5.0 0.00 0.00 0.00 50 1006.9
20260509180033 76 103 0.0 4.0 0.00 0.00 0.00 57 1006.8
20260509174529 74 202 1.0 4.0 0.00 0.00 0.00 60 1006.9
20260509173026 72 240 0.0 3.0 0.00 0.00 0.00 65 1006.9
20260509171525 69 276 0.0 3.0 0.00 0.00 0.00 75 1006.8
20260509170026 63 276 1.0 3.0 0.00 0.00 0.00 89 1006.8
20260509164512 62 276 0.0 0.0 0.00 0.00 0.00 95 1006.8
20260509163011 61 276 0.0 1.0 0.00 0.00 0.00 96 1007.0
20260509161507 60 276 0.0 1.0 0.00 0.00 0.00 95 1007.0
20260509160003 58 276 0.0 0.0 0.00 0.00 0.00 95 1007.0
20260509154559 57 276 0.0 0.0 0.00 0.00 0.00 95 1007.1
20260509153054 55 276 0.0 0.0 0.00 0.00 0.00 95 1007.0
20260509151558 54 276 0.0 0.0 0.00 0.00 0.00 95 1007.1
20260509150051 53 276 0.0 0.0 0.00 0.00 0.00 95 1007.1
20260509144552 51 276 0.0 0.0 0.00 0.00 0.00 94 1007.1
20260509143051 51 276 0.0 0.0 0.00 0.00 0.00 94 1007.0
20260509141552 50 276 0.0 0.0 0.00 0.00 0.00 94 1007.1
20260509140048 50 276 0.0 0.0 0.00 0.00 0.00 94 1007.0
20260509134556 50 276 0.0 0.0 0.00 0.00 0.00 93 1006.9
20260509133047 50 276 0.0 0.0 0.00 0.00 0.00 93 1006.8
20260509131602 50 276 0.0 0.0 0.00 0.00 0.00 93 1006.7
20260509130056 50 276 0.0 0.0 0.00 0.00 0.00 93 1006.7
20260509124548 50 276 0.0 0.0 0.00 0.00 0.00 93 1006.5
20260509123050 50 276 0.0 0.0 0.00 0.00 0.00 93 1006.5
20260509121547 50 276 0.0 0.0 0.00 0.00 0.00 93 1006.5
20260509120040 50 276 0.0 0.0 0.00 0.00 0.00 93 1006.6
20260509114538 50 276 0.0 0.0 0.00 0.00 0.00 92 1006.6
20260509113036 50 276 0.0 0.0 0.00 0.00 0.00 92 1006.7
20260509111536 51 276 0.0 0.0 0.00 0.00 0.00 92 1006.7
20260509110034 51 276 0.0 0.0 0.00 0.00 0.00 92 1006.7
20260509104537 51 276 0.0 0.0 0.00 0.00 0.00 92 1006.8
20260509103031 51 276 0.0 1.0 0.00 0.00 0.00 92 1006.9
20260509101530 51 276 0.0 0.0 0.00 0.00 0.00 91 1006.8
20260509100032 51 276 0.0 0.0 0.00 0.00 0.00 91 1006.8
20260509094525 52 276 0.0 0.0 0.00 0.00 0.00 91 1007.0
20260509093026 52 276 0.0 0.0 0.00 0.00 0.00 91 1007.0
20260509091525 52 276 0.0 0.0 0.00 0.00 0.00 91 1007.1
20260509090027 52 276 0.0 0.0 0.00 0.00 0.00 91 1007.1
20260509084519 52 276 0.0 0.0 0.00 0.00 0.00 90 1007.2
20260509083019 53 276 0.0 0.0 0.00 0.00 0.00 90 1007.2
20260509081532 53 276 0.0 0.0 0.00 0.00 0.00 90 1007.1
20260509080013 53 276 0.0 0.0 0.00 0.00 0.00 90 1007.2
20260509074512 54 276 0.0 0.0 0.00 0.00 0.00 89 1007.3
20260509073112 54 276 0.0 0.0 0.00 0.00 0.00 89 1007.3
20260509071508 54 276 0.0 0.0 0.00 0.00 0.00 88 1007.3
20260509070005 55 276 0.0 0.0 0.00 0.00 0.00 88 1007.2
20260509064505 55 276 0.0 0.0 0.00 0.00 0.00 87 1007.2
20260509063005 56 276 0.0 0.0 0.00 0.00 0.00 87 1007.3
20260509061502 56 276 0.0 0.0 0.00 0.00 0.00 87 1007.3
20260509060002 56 276 0.0 0.0 0.00 0.00 0.00 86 1007.3
20260509054504 57 276 0.0 0.0 0.00 0.00 0.00 86 1007.3
20260509053003 57 276 0.0 0.0 0.00 0.00 0.00 85 1007.3
20260509051502 58 276 0.0 0.0 0.00 0.00 0.00 84 1007.1
20260509050101 58 276 0.0 0.0 0.00 0.00 0.00 84 1007.1
20260509044600 59 276 0.0 3.0 0.00 0.00 0.00 83 1007.0
20260509043102 60 248 1.0 2.0 0.00 0.00 0.00 82 1007.1
20260509041600 60 248 0.0 3.0 0.00 0.00 0.00 81 1006.9
20260509040114 61 248 1.0 3.0 0.00 0.00 0.00 79 1006.8
20260509034629 62 248 0.0 1.0 0.00 0.00 0.00 77 1006.8
20260509033057 63 248 0.0 0.0 0.00 0.00 0.00 75 1006.8
20260509031557 65 248 0.0 0.0 0.00 0.00 0.00 73 1006.7
20260509030105 67 248 0.0 0.0 0.00 0.00 0.00 69 1006.6
20260509024555 69 248 0.0 0.0 0.00 0.00 0.00 65 1006.6